EW4650 Weather Reports


Display with metric or nautical units.
time (UTC)temp
F
wind
direction
speed
MPH
gust
MPH
rain 1hr
in
rain 24hr
in
rain mn
in
humidity
%
barometer
mb
20260505053028 69 184 13.0 24.0 0.00 0.00 0.00 85 1007.6
20260505052524 69 216 14.0 23.0 0.00 0.00 0.00 84 1007.7
20260505052024 69 219 13.0 23.0 0.00 0.00 0.00 84 1007.8
20260505051525 70 202 14.0 23.0 0.00 0.00 0.00 84 1007.8
20260505051024 70 208 13.0 23.0 0.00 0.00 0.00 84 1007.9
20260505050521 69 225 13.0 23.0 0.00 0.00 0.00 84 1008.0
20260505041519 69 214 10.0 18.0 0.00 0.00 0.00 85 1008.1
20260505041019 69 217 11.0 18.0 0.00 0.00 0.00 85 1008.1
20260505040519 69 206 8.0 15.0 0.00 0.00 0.00 85 1008.2
20260505040022 69 180 8.0 14.0 0.00 0.00 0.00 85 1008.1
20260505035522 69 206 7.0 12.0 0.00 0.00 0.00 85 1008.2
20260505035018 69 198 4.0 14.0 0.00 0.00 0.00 85 1008.2
20260505034518 69 222 6.0 13.0 0.00 0.00 0.00 85 1008.2
20260505034119 69 182 7.0 13.0 0.00 0.00 0.00 85 1008.1
20260505033519 69 213 7.0 16.0 0.00 0.00 0.00 85 1008.1
20260505033026 69 175 9.0 15.0 0.00 0.00 0.00 85 1008.1
20260505032519 69 189 8.0 14.0 0.00 0.00 0.00 85 1008.1
20260505032017 69 194 7.0 10.0 0.00 0.00 0.00 84 1008.1
20260505031517 69 192 6.0 11.0 0.00 0.00 0.00 84 1008.1
20260505031017 69 214 6.0 11.0 0.00 0.00 0.00 84 1008.1
20260505030516 69 192 5.0 10.0 0.00 0.00 0.00 84 1008.0
20260505030016 69 201 5.0 11.0 0.00 0.00 0.00 83 1008.0
20260505025516 69 192 7.0 11.0 0.00 0.00 0.00 83 1008.0
20260505025015 69 194 6.0 11.0 0.00 0.00 0.00 83 1008.1
20260505024515 69 192 6.0 14.0 0.00 0.00 0.00 83 1008.0
20260505024015 69 184 7.0 13.0 0.00 0.00 0.00 83 1008.0
20260505023515 69 186 8.0 13.0 0.00 0.00 0.00 83 1007.9
20260505023018 69 225 7.0 10.0 0.00 0.00 0.00 83 1008.0
20260505022516 70 231 6.0 12.0 0.00 0.00 0.00 83 1007.9
20260505022015 70 213 8.0 14.0 0.00 0.00 0.00 83 1008.0
20260505021515 70 207 7.0 14.0 0.00 0.00 0.00 83 1007.9
20260505021016 70 206 6.0 11.0 0.00 0.00 0.00 83 1008.0
20260505020514 70 216 6.0 10.0 0.00 0.00 0.00 82 1008.0
20260505020017 70 203 5.0 10.0 0.00 0.00 0.00 82 1007.9
20260505015513 70 192 6.0 10.0 0.00 0.00 0.00 82 1007.9
20260505015012 70 173 5.0 9.0 0.00 0.00 0.00 82 1007.9
20260505014516 70 209 5.0 8.0 0.00 0.00 0.00 81 1008.0
20260505014014 71 187 5.0 10.0 0.00 0.00 0.00 81 1007.9
20260505013511 71 190 5.0 10.0 0.00 0.00 0.00 80 1008.0
20260505013011 71 229 5.0 10.0 0.00 0.00 0.00 80 1007.9
20260505012511 72 227 4.0 9.0 0.00 0.00 0.00 79 1007.9
20260505012011 72 198 5.0 9.0 0.00 0.00 0.00 79 1007.8
20260505011511 72 193 6.0 9.0 0.00 0.00 0.00 78 1007.9
20260505011010 72 197 5.0 11.0 0.00 0.00 0.00 78 1007.8
20260505010510 73 198 8.0 11.0 0.00 0.00 0.00 77 1007.7
20260505010010 73 209 7.0 13.0 0.00 0.00 0.00 77 1007.8
20260505005510 73 196 9.0 13.0 0.00 0.00 0.00 76 1007.8
20260505005010 73 205 7.0 15.0 0.00 0.00 0.00 76 1007.8
20260505004515 74 219 5.0 13.0 0.00 0.00 0.00 76 1007.9
20260505004009 74 196 8.0 12.0 0.00 0.00 0.00 75 1007.8
20260505003510 74 174 7.0 15.0 0.00 0.00 0.00 75 1007.9
20260505003009 74 182 8.0 17.0 0.00 0.00 0.00 75 1008.0
20260505002509 75 190 11.0 17.0 0.00 0.00 0.00 74 1008.0
20260505002009 75 207 7.0 16.0 0.00 0.00 0.00 74 1008.0
20260505001509 75 214 10.0 14.0 0.00 0.00 0.00 73 1008.0
20260505001008 76 241 7.0 13.0 0.00 0.00 0.00 73 1008.0
20260505000508 76 186 7.0 13.0 0.00 0.00 0.00 73 1007.9
20260505000011 76 184 8.0 14.0 0.00 0.00 0.00 73 1007.8
20260504235507 76 224 7.0 16.0 0.00 0.00 0.00 72 1007.8
20260504235008 76 215 10.0 16.0 0.00 0.00 0.00 71 1007.9
20260504234507 77 172 10.0 17.0 0.00 0.00 0.00 72 1007.9
20260504234011 77 186 9.0 16.0 0.00 0.00 0.00 72 1007.9
20260504233507 77 188 9.0 19.0 0.00 0.00 0.00 71 1007.9
20260504233107 77 206 12.0 19.0 0.00 0.00 0.00 70 1007.9
20260504232507 77 172 9.0 14.0 0.00 0.00 0.00 71 1007.9
20260504232007 77 182 8.0 14.0 0.00 0.00 0.00 71 1007.9
20260504231506 77 175 8.0 18.0 0.00 0.00 0.00 73 1007.8
20260504231007 77 207 11.0 19.0 0.00 0.00 0.00 72 1007.8
20260504230506 77 162 10.0 19.0 0.00 0.00 0.00 70 1008.0
20260504230004 77 165 11.0 19.0 0.00 0.00 0.00 71 1008.1
20260504225504 78 177 11.0 17.0 0.00 0.00 0.00 71 1008.2
20260504225003 77 234 9.0 13.0 0.00 0.00 0.00 71 1008.1
20260504224503 77 200 7.0 19.0 0.00 0.00 0.00 72 1008.2
20260504224002 77 217 12.0 18.0 0.00 0.00 0.00 71 1008.3
20260504223502 77 244 9.0 19.0 0.00 0.00 0.00 71 1008.2
20260504223002 77 213 13.0 18.0 0.00 0.00 0.00 71 1008.2
20260504222502 76 203 14.0 18.0 0.00 0.00 0.00 71 1008.2
20260504222000 76 243 11.0 20.0 0.00 0.00 0.00 71 1008.4
20260504221603 77 217 14.0 19.0 0.00 0.00 0.00 71 1008.6
20260504221059 77 191 9.0 21.0 0.00 0.00 0.00 72 1008.5
20260504220559 77 216 9.0 20.0 0.00 0.00 0.00 71 1008.6
20260504220101 77 190 11.0 20.0 0.00 0.00 0.00 71 1008.8
20260504215601 77 179 10.0 20.0 0.00 0.00 0.00 70 1008.8
20260504215056 77 199 11.0 21.0 0.00 0.00 0.00 70 1008.8
20260504214605 78 168 10.0 18.0 0.00 0.00 0.00 69 1008.9
20260504214056 77 206 10.0 17.0 0.00 0.00 0.00 70 1008.8
20260504213555 77 188 10.0 15.0 0.00 0.00 0.00 71 1009.0
20260504213056 77 193 10.0 23.0 0.00 0.00 0.00 71 1009.1
20260504212555 77 201 11.0 23.0 0.00 0.00 0.00 71 1009.2
20260504212058 77 242 11.0 20.0 0.00 0.00 0.00 71 1009.1
20260504211554 77 186 10.0 22.0 0.00 0.00 0.00 70 1009.2
20260504211053 77 243 14.0 22.0 0.00 0.00 0.00 69 1009.3
20260504210553 77 179 8.0 22.0 0.00 0.00 0.00 71 1009.4
20260504205549 77 208 13.0 19.0 0.00 0.00 0.00 70 1009.6
20260504205051 77 215 11.0 20.0 0.00 0.00 0.00 71 1009.7
20260504204606 76 182 12.0 20.0 0.00 0.00 0.00 72 1009.7
20260504204046 76 184 12.0 20.0 0.00 0.00 0.00 72 1009.7
20260504203546 76 223 11.0 21.0 0.00 0.00 0.00 72 1009.8
20260504203059 76 236 9.0 21.0 0.00 0.00 0.00 73 1009.9
20260504202543 76 191 14.0 21.0 0.00 0.00 0.00 71 1010.0
20260504202043 76 182 8.0 16.0 0.00 0.00 0.00 72 1010.1
20260504201541 75 258 8.0 17.0 0.00 0.00 0.00 74 1010.2
20260504201040 74 207 10.0 18.0 0.00 0.00 0.00 76 1010.2
20260504200540 74 240 13.0 21.0 0.00 0.00 0.00 74 1010.5
20260504200039 74 240 13.0 21.0 0.00 0.00 0.00 76 1010.5
20260504195537 74 227 9.0 18.0 0.00 0.00 0.00 77 1010.6
20260504195038 74 209 8.0 21.0 0.00 0.00 0.00 75 1010.7
20260504194537 73 246 12.0 21.0 0.00 0.00 0.00 75 1010.8
20260504194036 73 213 12.0 19.0 0.00 0.00 0.00 75 1010.8
20260504193538 73 229 14.0 19.0 0.00 0.00 0.00 76 1011.0
20260504193035 73 219 12.0 20.0 0.00 0.00 0.00 76 1011.1
20260504192535 73 239 14.0 19.0 0.00 0.00 0.00 76 1011.0
20260504192035 73 195 11.0 22.0 0.00 0.00 0.00 76 1011.0
20260504191535 74 211 10.0 22.0 0.00 0.00 0.00 75 1011.0
20260504191035 74 196 11.0 18.0 0.00 0.00 0.00 75 1011.0
20260504190535 74 186 12.0 20.0 0.00 0.00 0.00 74 1011.0
20260504190034 74 233 12.0 17.0 0.00 0.00 0.00 74 1011.0
20260504185533 74 242 6.0 13.0 0.00 0.00 0.00 76 1011.1
20260504185035 73 223 7.0 16.0 0.00 0.00 0.00 78 1011.0
20260504184531 73 200 12.0 20.0 0.00 0.00 0.00 78 1011.2
20260504184030 73 207 15.0 20.0 0.00 0.00 0.00 77 1011.2
20260504183530 72 185 10.0 17.0 0.00 0.00 0.00 77 1011.3
20260504183030 72 165 10.0 18.0 0.00 0.00 0.00 78 1011.3
20260504182529 72 216 12.0 19.0 0.00 0.00 0.00 77 1011.3
20260504182029 73 222 13.0 19.0 0.00 0.00 0.00 76 1011.4
20260504181528 73 178 8.0 22.0 0.00 0.00 0.00 78 1011.3
20260504181028 73 190 12.0 22.0 0.00 0.00 0.00 76 1011.5
20260504180526 72 174 7.0 18.0 0.00 0.00 0.00 80 1011.5
20260504180024 72 217 11.0 19.0 0.00 0.00 0.00 78 1011.9
20260504175524 72 197 12.0 20.0 0.00 0.00 0.00 78 1011.8
20260504175023 72 241 13.0 20.0 0.00 0.00 0.00 78 1011.7
20260504174522 71 227 11.0 18.0 0.00 0.00 0.00 81 1011.8
20260504174021 70 194 11.0 20.0 0.00 0.00 0.00 81 1012.1
20260504173520 69 202 12.0 20.0 0.00 0.00 0.00 81 1012.1
20260504173020 69 219 10.0 23.0 0.00 0.00 0.00 81 1012.0
20260504172522 69 227 15.0 23.0 0.00 0.00 0.00 81 1012.0
20260504172019 69 214 12.0 21.0 0.00 0.00 0.00 82 1012.0
20260504171518 69 216 15.0 23.0 0.00 0.00 0.00 81 1012.2
20260504171025 70 225 12.0 19.0 0.00 0.00 0.00 82 1012.3
20260504170517 69 216 12.0 20.0 0.00 0.00 0.00 83 1012.4
20260504151100 63 209 10.0 20.0 0.00 0.00 0.00 92 1012.8
20260504150600 63 205 8.0 17.0 0.00 0.00 0.00 92 1012.9
20260504141057 61 183 10.0 18.0 0.00 0.00 0.00 94 1013.0
20260504140558 61 219 10.0 17.0 0.00 0.00 0.00 94 1013.0
20260504130517 60 196 11.0 24.0 0.00 0.00 0.00 95 1012.9
20260504110505 59 227 11.0 20.0 0.00 0.00 0.00 92 1012.5
20260504100558 58 205 12.0 19.0 0.00 0.00 0.00 90 1012.9
20260504081544 59 180 10.0 19.0 0.00 0.00 0.00 87 1013.7
20260504081043 59 221 9.0 18.0 0.00 0.00 0.00 87 1014.0
20260504080546 59 174 11.0 18.0 0.00 0.00 0.00 87 1013.9